Location: Bay Shore Mobile Home Park
(38.5762°N, 75.0841°W)
Time: 09:45:14
(UTC+00:00)

SJ 16-02 - Pass Details

Date: 15 November 2025
Orbit: 585 x 594 km, 75.0° (Epoch: 05 December)

Event Time Altitude Azimuth Distance (km) Brightness Sun altitude
Rises 22:38:58 0° 164° (SSE) 2,820 4.7 -10.4°
Reaches altitude 10° 22:41:33 10° 149° (SSE) 1,924 3.7 -10.9°
Maximum altitude 22:44:53 22° 98° (E) 1,308 2.5 -11.5°
Enters shadow 22:46:47 17° 63° (ENE) 1,544 2.8 -11.9°
